Regional Weather Roundup
Issued by NWS

Home | Current Version | Previous Version | Text Only | Print | Product List | Glossary Off
Versions: 1 2 3 4 5 6 7 8 9 10 11 12 13 14 15 16 17 18 19 20 21 22 23 24 25 26 27 28 29 30 31 32 33 34 35 36 37 38 39 40 41 42 43 44 45 46 47 48 49 50

231
ASUS45 KCYS 070510
RWRWY

WYOMING REGIONAL WEATHER ROUNDUP
NATIONAL WEATHER SERVICE CHEYENNE WY
1000 PM MST TUE DEC 06 2016

NOTE:  "FAIR" INDICATES FEW OR NO CLOUDS BELOW 12,000 FEET
WITH NO SIGNIFICANT WEATHER AND/OR OBSTRUCTIONS TO VISIBILITY.

WYZ001-070600-
YELLOWSTONE NATIONAL PARK

CITY           SKY/WX    TMP DP  RH WIND       PRES   REMARKS
LK YELLOWSTONE   N/A      3   0  87 CALM      29.77R
W YELLOWSTONE  NOT AVBL

$$
WYZ002>013-054>058-071-098>099-070600-
NORTHERN WYOMING

CITY           SKY/WX    TMP DP  RH WIND       PRES   REMARKS
JACKSON        CLOUDY     0  -2  92 CALM      29.83R
CODY           LGT SNOW   5   0  79 NE12      30.01R WCI -11
GREYBULL       CLOUDY    11   1  64 NW7       30.06R WCI   0
WORLAND        CLOUDY    11   5  77 N10       30.05R WCI  -3
SHERIDAN       CLOUDY     8   2  76 W7        30.12R WCI  -3
BUFFALO        CLOUDY     6  -1  73 CALM      30.04R
GILLETTE       FAIR      -7 -10  87 NW3       30.07R
HULETT         CLOUDY     0  -4  85 MISG      30.08R
NEWCASTLE      FAIR       0  -6  78 NW10      30.07R WCI -17

$$
WYZ014>020-022>026-101>103-070600-
CENTRAL WYOMING

CITY           SKY/WX    TMP DP  RH WIND       PRES   REMARKS
BIG PINEY      CLOUDY     1  -2  87 CALM      29.80R
PINEDALE       CLOUDY     3   0  85 NW6       29.80R HAZE    WCI  -8
DUBOIS         LGT SNOW   3   0  85 S3        29.79R
LANDER         MOCLDY     7   0  73 NW6       29.92R WCI  -3
RIVERTON       FAIR       3  -2  79 NE15      29.91R WCI -16
CASPER         CLOUDY     4   1  88 N16       29.97R WCI -15
DOUGLAS        CLOUDY     5  -1  76 N9        30.01R WCI  -9

$$
WYZ021-027>030-104>119-070600-
SOUTHERN WYOMING

CITY           SKY/WX    TMP DP  RH WIND       PRES   REMARKS
EVANSTON       FAIR       6   1  80 W10       29.79R WCI  -9
FORT BRIDGER   FAIR       8   4  87 SW7       29.82R WCI  -4
ROCK SPRINGS   CLOUDY     8   5  87 SW6       29.80R FOG     WCI  -2
DIXON          LGT SNOW  17  14  86 W3        29.80S
RAWLINS        FAIR       5  -4  66 N6        29.79R WCI  -6
SARATOGA       LGT SNOW  10   3  72 NW8       29.77R WCI  -1
LARAMIE        CLOUDY    11   3  70 SE18      29.75R WCI  -7
CHEYENNE       LGT SNOW  12   8  84 E8        29.83F FOG     WCI   0
TORRINGTON     CLOUDY    13   2  61 N9        30.00S WCI   1
PINE BLUFFS    CLOUDY    18   9  68 E12G17    29.90F WCI   5

$$




USA.gov is the U.S. government's official web portal to all federal, state and local government web resources and services.